Location: Melbourne
(37.8170°S, 144.9670°E)
Time: 10:22:22
(UTC+10:00)

ISS - Visible Passes

Search period start: 27 May 2016 00:00
Search period end: 06 June 2016 00:00
Orbit: 402 x 404 km, 51.6° (Epoch: 26 May)

Date Brightness Start Highest point End Pass type
(mag) Time Alt. Az. Time Alt. Az. Time Alt. Az.
01 Jun -0.2 06:24:48 10° N 06:27:12 19° NE 06:29:37 10° E visible
03 Jun -2.3 06:14:33 10° NNW 06:17:43 48° NE 06:20:57 10° ESE visible
04 Jun -1.0 05:23:46 18° NNE 05:25:00 23° NE 05:27:41 10° ESE visible
05 Jun -3.4 06:07:01 32° WNW 06:08:21 64° SW 06:11:40 10° SE visible
